Location: Sternwarte ZA, Rosenfeld-Brittheim
(48.2889°N, 8.6789°E)
Time: 06:44:45
(UTC+01:00)

ISS - Pass Details

Date: 10 November 2018
Orbit: 402 x 408 km, 51.6° (Epoch: 16 November)

Event Time Altitude Azimuth Distance (km) Brightness Sun altitude
Exits shadow 05:58:28 31° 284° (WNW) 735 -3.1 -14.4°
Maximum altitude 05:59:52 74° 206° (SSW) 426 -3.9 -14.2°
Drops below altitude 10° 06:03:08 10° 121° (ESE) 1,461 0.2 -13.7°
Sets 06:05:13 0° 119° (ESE) 2,320 1.5 -13.3°
